Location: Cardiff
(53.7833°N, 113.6000°W)
Time: 18:31:20
(UTC+00:00)

RS-15 - Pass Details

Date: 10 December 2023
Orbit: 1893 x 2151 km, 64.8° (Epoch: 24 February)

Event Time Altitude Azimuth Distance (km) Brightness Sun altitude
Exits shadow 12:34:32 40° 282° (WNW) 2,675 8.2 -26.0°
Maximum altitude 12:37:34 47° 246° (WSW) 2,430 8.1 -25.5°
Drops below altitude 10° 12:47:46 10° 177° (S) 4,286 9.9 -24.0°
Sets 12:51:07 0° 172° (S) 5,269 10.5 -23.5°
